Weather History for Oakland, CA

Change the Weather History Date:

Monday, February 18, 2013

  Actual Average Record
Temperature  
Mean Temperature 50 °F 52 °F  
Max Temperature 56 °F 60 °F 69 °F (1986)
Min Temperature 44 °F 45 °F 30 °F (1956)
Degree Days  
Heating Degree Days 15 13  
Month to date heating degree days 239 242  
Since 1 July heating degree days 1776 1901  
Cooling Degree Days 0 0  
Month to date cooling degree days 0 0  
Year to date cooling degree days 0 0  
Moisture  
Dew Point 44 °F    
Average Humidity 80    
Maximum Humidity 100    
Minimum Humidity 59    
Precipitation  
Precipitation 0.00 in 0.15 in 1.32 in (1958)
Month to date precipitation 0.24 2.35  
Year to date precipitation 0.53 6.34  
Since 1 July precipitation 11.52 13.93  
Sea Level Pressure  
Sea Level Pressure 30.03 in    
Wind  
Wind Speed 11 mph (West)    
Max Wind Speed 21 mph    
Max Gust Speed 25 mph    
Visibility 10 miles    
Events      
T = Trace of Precipitation, MM = Missing Value Source: NWS Daily Summary

Daily Weather History Graph

Daily Weather History Graph

Search for Another Location

Airport:

Trip Planner

Search our weather history database for the weather conditions in past years. The results will help you decide how hot, cold, wet, or windy it might be!

Date:

Astronomy

Feb. 18, 2013 Rise Set
Actual Time 6:54 AM PST 5:51 PM PST
Civil Twilight 6:27 AM PST 6:18 PM PST
Nautical Twilight 5:57 AM PST 6:49 PM PST
Astronomical Twilight 5:26 AM PST 7:19 PM PST
Moon 11:44 AM PST (2/18) 1:36 AM PST (2/18)
Length of Visible Light 11h 50m
Length of Day
10h 57m
First Quarter, 59% of the Moon is Illuminated
Feb 18
First Quarter
Feb 25
Full
Mar 4
Last Quarter
Mar 11
New
Mar 19
First Quarter

Hourly Weather History & Observations

Time (PST) Temp. Windchill Dew Point Humidity Pressure Visibility Wind Dir Wind Speed Gust Speed Precip Events Conditions
12:53 AM 46.0 °F 43.9 °F 45.0 °F 96% 30.04 in 10.0 mi North 4.6 mph - N/A   Partly Cloudy
1:51 AM 46.4 °F - 46.4 °F 100% 30.05 in 10.0 mi Calm Calm - N/A   Mostly Cloudy
1:53 AM 48.0 °F - 48.0 °F 100% 30.04 in 10.0 mi Calm Calm - N/A   Mostly Cloudy
2:53 AM 46.0 °F 43.1 °F 46.0 °F 100% 30.03 in 9.0 mi NE 5.8 mph - N/A   Mostly Cloudy
3:53 AM 48.9 °F - 48.9 °F 100% 30.02 in 10.0 mi WSW 3.5 mph - N/A   Overcast
4:32 AM 50.0 °F - 48.2 °F 94% 30.03 in 10.0 mi West 10.4 mph - N/A   Mostly Cloudy
4:53 AM 50.0 °F - 46.9 °F 89% 30.03 in 10.0 mi West 9.2 mph - N/A   Mostly Cloudy
5:53 AM 51.1 °F - 46.9 °F 86% 30.03 in 10.0 mi West 9.2 mph - N/A   Overcast
6:53 AM 50.0 °F - 46.0 °F 86% 30.04 in 10.0 mi West 10.4 mph - N/A   Overcast
7:53 AM 51.1 °F - 46.0 °F 83% 30.05 in 10.0 mi WSW 8.1 mph - N/A   Overcast
8:53 AM 52.0 °F - 45.0 °F 77% 30.06 in 10.0 mi WSW 10.4 mph - N/A   Mostly Cloudy
9:53 AM 52.0 °F - 43.0 °F 71% 30.06 in 10.0 mi WSW 13.8 mph - N/A   Overcast
10:53 AM 53.1 °F - 44.1 °F 71% 30.07 in 10.0 mi SW 9.2 mph - N/A   Overcast
11:53 AM 53.1 °F - 45.0 °F 74% 30.06 in 10.0 mi West 12.7 mph - N/A   Overcast
12:14 PM 53.6 °F - 42.8 °F 67% 30.05 in 10.0 mi West 12.7 mph - N/A   Overcast
12:53 PM 54.0 °F - 44.1 °F 69% 30.04 in 10.0 mi WSW 11.5 mph - N/A   Overcast
1:53 PM 54.0 °F - 39.9 °F 59% 30.01 in 10.0 mi WSW 12.7 mph - N/A   Overcast
2:53 PM 54.0 °F - 42.1 °F 64% 30.01 in 10.0 mi West 13.8 mph - N/A   Overcast
3:53 PM 53.1 °F - 42.1 °F 66% 30.01 in 10.0 mi West 12.7 mph - N/A   Overcast
4:53 PM 52.0 °F - 43.0 °F 71% 30.01 in 10.0 mi West 16.1 mph - N/A   Overcast
5:53 PM 52.0 °F - 43.0 °F 71% 30.00 in 10.0 mi West 17.3 mph - N/A   Overcast
6:53 PM 52.0 °F - 43.0 °F 71% 30.00 in 10.0 mi West 16.1 mph - N/A   Overcast
7:17 PM 51.8 °F - 44.6 °F 76% 30.00 in 10.0 mi West 17.3 mph - N/A   Overcast
7:27 PM 51.8 °F - 44.6 °F 76% 30.00 in 10.0 mi West 19.6 mph - N/A   Overcast
7:53 PM 52.0 °F - 44.1 °F 74% 30.00 in 10.0 mi West 16.1 mph - N/A   Overcast
8:53 PM 51.1 °F - 44.1 °F 77% 30.00 in 10.0 mi West 13.8 mph - N/A   Mostly Cloudy
9:53 PM 51.1 °F - 42.1 °F 71% 30.01 in 10.0 mi West 18.4 mph - N/A   Mostly Cloudy
10:53 PM 51.1 °F - 42.1 °F 71% 30.01 in 10.0 mi West 12.7 mph - N/A   Overcast
11:53 PM 51.1 °F - 39.0 °F 63% 30.00 in 10.0 mi West 15.0 mph - N/A   Overcast